WW9M Weather Reports


Display with metric or nautical units.
time (UTC)temp
F
wind
direction
speed
MPH
gust
MPH
rain 1hr
in
rain 24hr
in
rain mn
in
humidity
%
barometer
mb
20260906073502 74 82 0.0 1.0 0.00 0.00 0.00 94 1013.4
20260906073005 74 82 0.0 1.0 0.00 0.00 0.00 94 1013.3
20260906072500 74 87 0.0 1.0 0.00 0.00 0.00 94 1013.4
20260906072002 74 92 0.0 1.0 0.00 0.00 0.00 94 1013.5
20260906071004 74 93 0.0 0.0 0.00 0.00 0.00 94 1013.4
20260906070500 74 93 0.0 0.0 0.00 0.00 0.00 94 1013.5
20260906070005 73 93 0.0 0.0 0.00 0.00 0.00 94 1013.5
20260906065505 73 93 0.0 0.0 0.00 0.00 0.00 94 1013.5
20260906065003 73 93 0.0 0.0 0.00 0.00 0.00 94 1013.4
20260906064504 73 93 0.0 0.0 0.00 0.00 0.00 93 1013.5
20260906064002 73 92 0.0 0.0 0.00 0.00 0.00 93 1013.6
20260906063002 74 93 0.0 0.0 0.00 0.00 0.00 93 1013.5
20260906062502 74 93 0.0 0.0 0.00 0.00 0.00 93 1013.7
20260906062003 74 93 0.0 0.0 0.00 0.00 0.00 93 1013.7
20260906061503 74 93 0.0 0.0 0.00 0.00 0.00 92 1013.7
20260906061002 74 93 0.0 0.0 0.00 0.00 0.00 92 1013.7
20260906060502 74 93 0.0 0.0 0.00 0.00 0.00 92 1013.6
20260906055502 74 93 0.0 0.0 0.00 0.00 0.00 91 1013.7
20260906055003 74 93 0.0 0.0 0.00 0.00 0.00 91 1013.7
20260906054502 74 93 0.0 0.0 0.00 0.00 0.00 91 1013.6
20260906054002 74 93 0.0 0.0 0.00 0.00 0.00 91 1013.5
20260906053502 74 93 0.0 0.0 0.00 0.00 0.00 90 1013.6
20260906053002 74 93 0.0 0.0 0.00 0.00 0.00 90 1013.6
20260906052502 75 92 0.0 0.0 0.00 0.00 0.00 90 1013.5
20260906051503 75 93 0.0 0.0 0.00 0.00 0.00 89 1013.5
20260906051005 75 93 0.0 0.0 0.00 0.00 0.00 89 1013.5
20260906050503 75 93 0.0 0.0 0.00 0.00 0.00 89 1013.4
20260906050002 75 93 0.0 0.0 0.00 0.00 0.00 89 1013.3
20260906045502 75 93 0.0 0.0 0.00 0.00 0.00 89 1013.3
20260906045002 75 93 0.0 0.0 0.00 0.00 0.00 89 1013.2
20260906044504 76 93 0.0 1.0 0.00 0.00 0.00 89 1013.2
20260906043502 76 93 0.0 0.0 0.00 0.00 0.00 89 1013.1
20260906043002 76 94 0.0 0.0 0.00 0.00 0.00 89 1013.1
20260906042001 76 94 0.0 0.0 0.00 0.00 0.00 88 1012.9
20260906041503 76 94 0.0 1.0 0.00 0.00 0.00 88 1012.9
20260906041000 76 94 0.0 1.0 0.00 0.00 0.00 86 1012.8
20260906040005 77 94 0.0 1.0 0.00 0.00 0.00 86 1012.6
20260906035502 77 94 0.0 1.0 0.00 0.00 0.00 85 1012.7
20260906035003 77 75 0.0 1.0 0.00 0.00 0.00 85 1012.7
20260906034502 77 75 0.0 0.0 0.00 0.00 0.00 85 1012.8
20260906034003 77 75 0.0 1.0 0.00 0.00 0.00 84 1012.7
20260906033503 77 75 0.0 1.0 0.00 0.00 0.00 84 1012.8
20260906033003 78 75 0.0 1.0 0.00 0.00 0.00 83 1012.8
20260906032503 78 77 0.0 0.0 0.00 0.00 0.00 83 1012.7
20260906032003 78 77 0.0 0.0 0.00 0.00 0.00 83 1012.7
20260906031005 78 77 0.0 1.0 0.00 0.00 0.00 83 1013.0
20260906030505 78 104 0.0 1.0 0.00 0.00 0.00 82 1012.9
20260906030005 78 104 0.0 1.0 0.00 0.00 0.00 82 1012.9
20260906025004 79 66 0.0 2.0 0.00 0.00 0.00 82 1012.7
20260906024503 79 69 0.0 1.0 0.00 0.00 0.00 82 1012.7
20260906024002 79 69 0.0 1.0 0.00 0.00 0.00 81 1012.7
20260906023505 79 66 0.0 1.0 0.00 0.00 0.00 81 1012.8
20260906023004 79 66 0.0 1.0 0.00 0.00 0.00 81 1012.9
20260906022505 80 66 0.0 1.0 0.00 0.00 0.00 80 1012.7
20260906021503 80 65 0.0 1.0 0.00 0.00 0.00 80 1012.6
20260906021006 80 63 0.0 1.0 0.00 0.00 0.00 80 1012.6
20260906020502 81 64 0.0 1.0 0.00 0.00 0.00 80 1012.5
20260906015502 81 63 0.0 1.0 0.00 0.00 0.00 81 1012.5
20260906014502 81 77 0.0 1.0 0.00 0.00 0.00 82 1012.2
20260906014002 81 78 0.0 2.0 0.00 0.00 0.00 82 1012.2
20260906013502 81 121 0.0 2.0 0.00 0.00 0.00 83 1012.0
20260906013002 81 117 0.0 2.0 0.00 0.00 0.00 84 1012.0
20260906012500 80 92 0.0 2.0 0.00 0.00 0.00 88 1011.9
20260906011002 81 229 0.0 0.0 0.00 0.00 0.00 89 1011.4
20260906010500 81 229 0.0 0.0 0.00 0.00 0.00 88 1011.3
20260906005002 82 228 0.0 0.0 0.00 0.00 0.00 87 1011.1
20260906004503 82 229 0.0 0.0 0.00 0.00 0.00 86 1011.1
20260906003501 82 229 0.0 0.0 0.00 0.00 0.00 86 1011.1
20260906003002 82 229 0.0 0.0 0.00 0.00 0.00 85 1011.0
20260906002500 83 229 0.0 0.0 0.00 0.00 0.00 85 1011.1
20260906001503 83 229 0.0 0.0 0.00 0.00 0.00 84 1011.1
20260906000502 84 229 0.0 0.0 0.00 0.00 0.00 83 1011.0
20260906000001 84 228 0.0 0.0 0.00 0.00 0.00 82 1011.0
20260905235003 85 228 0.0 0.0 0.00 0.00 0.00 80 1011.1
20260905234504 85 229 0.0 0.0 0.00 0.00 0.00 80 1011.1
20260905234002 86 229 0.0 0.0 0.00 0.00 0.00 80 1011.1
20260905233503 86 229 0.0 0.0 0.00 0.00 0.00 80 1011.1
20260905233003 86 229 0.0 0.0 0.00 0.00 0.00 79 1011.2
20260905232004 87 229 0.0 0.0 0.00 0.00 0.00 78 1011.4
20260905231500 87 229 0.0 0.0 0.00 0.00 0.00 78 1011.5
20260905231002 87 229 0.0 0.0 0.00 0.00 0.00 77 1011.6
20260905230503 87 229 0.0 0.0 0.00 0.00 0.00 77 1011.5
20260905230004 87 229 0.0 0.0 0.00 0.00 0.00 77 1011.3
20260905225503 87 229 0.0 0.0 0.00 0.00 0.00 77 1011.2
20260905225003 87 228 0.0 0.0 0.00 0.00 0.00 77 1011.2
20260905224503 87 229 0.0 0.0 0.00 0.00 0.00 76 1011.1
20260905224003 88 228 0.0 0.0 0.00 0.00 0.00 75 1011.1
20260905223003 88 229 0.0 0.0 0.00 0.00 0.00 75 1010.9
20260905222503 88 229 0.0 0.0 0.00 0.00 0.00 74 1010.9
20260905222002 88 229 0.0 0.0 0.00 0.00 0.00 73 1011.0
20260905221503 88 229 0.0 0.0 0.00 0.00 0.00 72 1010.9
20260905221003 89 229 0.0 0.0 0.00 0.00 0.00 72 1010.9
20260905220503 89 229 0.0 0.0 0.00 0.00 0.00 71 1011.0
20260905220005 90 229 0.0 0.0 0.00 0.00 0.00 70 1010.9
20260905215502 90 228 0.0 0.0 0.00 0.00 0.00 68 1011.1
20260905215003 91 229 0.0 0.0 0.00 0.00 0.00 67 1011.1
20260905214505 91 228 0.0 0.0 0.00 0.00 0.00 66 1011.2
20260905214003 91 229 0.0 1.0 0.00 0.00 0.00 66 1011.1
20260905213002 92 34 0.0 2.0 0.00 0.00 0.00 63 1011.2
20260905211504 94 30 1.0 3.0 0.00 0.00 0.00 60 1011.0
20260905211003 94 29 1.0 3.0 0.00 0.00 0.00 63 1011.1
20260905205003 96 241 0.0 2.0 0.00 0.00 0.00 59 1011.4
20260905204000 95 174 1.0 3.0 0.00 0.00 0.00 60 1011.5
20260905203500 95 13 1.0 3.0 0.00 0.00 0.00 58 1011.5
20260905203004 95 221 0.0 2.0 0.00 0.00 0.00 59 1011.6
20260905202502 95 309 0.0 2.0 0.00 0.00 0.00 58 1011.7
20260905202002 95 158 0.0 2.0 0.00 0.00 0.00 58 1011.7
20260905201502 95 236 1.0 2.0 0.00 0.00 0.00 60 1011.8
20260905201002 95 360 1.0 2.0 0.00 0.00 0.00 60 1011.8
20260905200502 95 220 1.0 2.0 0.00 0.00 0.00 60 1011.8
20260905200000 96 220 1.0 3.0 0.00 0.00 0.00 61 1011.9
20260905195501 96 117 1.0 3.0 0.00 0.00 0.00 58 1011.9
20260905195002 96 2 1.0 3.0 0.00 0.00 0.00 55 1011.9
20260905194503 96 130 0.0 2.0 0.00 0.00 0.00 53 1012.0
20260905193001 97 292 0.0 1.0 0.00 0.00 0.00 57 1012.1
20260905192502 96 357 1.0 3.0 0.00 0.00 0.00 53 1012.2
20260905192000 96 115 1.0 3.0 0.00 0.00 0.00 53 1012.3
20260905191501 96 230 1.0 2.0 0.00 0.00 0.00 54 1012.3
20260905190502 95 78 1.0 4.0 0.00 0.00 0.00 53 1012.4
20260905190000 95 234 1.0 4.0 0.00 0.00 0.00 54 1012.4
20260905185004 95 298 1.0 2.0 0.00 0.00 0.00 55 1012.6
20260905184000 95 61 1.0 2.0 0.00 0.00 0.00 53 1012.8
20260905183002 95 21 1.0 2.0 0.00 0.00 0.00 54 1013.1
20260905182502 95 6 1.0 2.0 0.00 0.00 0.00 54 1013.1
20260905182002 95 18 1.0 2.0 0.00 0.00 0.00 53 1013.1
20260905181002 94 140 0.0 2.0 0.00 0.00 0.00 54 1013.0
20260905180502 94 75 0.0 2.0 0.00 0.00 0.00 56 1013.0
20260905175501 94 228 1.0 3.0 0.00 0.00 0.00 53 1013.2
20260905175002 93 106 1.0 3.0 0.00 0.00 0.00 54 1013.3
20260905174500 93 28 1.0 2.0 0.00 0.00 0.00 55 1013.3
20260905174000 93 162 1.0 3.0 0.00 0.00 0.00 56 1013.4
20260905173002 92 131 1.0 2.0 0.00 0.00 0.00 54 1013.5
20260905172501 92 20 1.0 2.0 0.00 0.00 0.00 55 1013.5
20260905172001 92 211 1.0 3.0 0.00 0.00 0.00 59 1013.6
20260905171503 92 123 0.0 3.0 0.00 0.00 0.00 55 1013.8
20260905171002 92 46 1.0 4.0 0.00 0.00 0.00 57 1013.8
20260905170502 91 137 1.0 4.0 0.00 0.00 0.00 57 1013.9
20260905170005 91 81 0.0 1.0 0.00 0.00 0.00 57 1014.1
20260905165502 91 162 0.0 3.0 0.00 0.00 0.00 58 1014.2
20260905165003 90 172 1.0 3.0 0.00 0.00 0.00 59 1014.2
20260905164502 89 103 1.0 3.0 0.00 0.00 0.00 57 1014.3
20260905164003 89 91 1.0 3.0 0.00 0.00 0.00 59 1014.3
20260905163503 88 76 1.0 3.0 0.00 0.00 0.00 59 1014.2
20260905163003 88 177 1.0 4.0 0.00 0.00 0.00 59 1014.1
20260905162502 88 335 1.0 4.0 0.00 0.00 0.00 62 1014.1
20260905162003 87 63 1.0 4.0 0.00 0.00 0.00 62 1014.1
20260905161503 87 47 1.0 3.0 0.00 0.00 0.00 63 1014.2
20260905160505 86 353 0.0 3.0 0.00 0.00 0.00 62 1014.2
20260905160004 85 106 0.0 2.0 0.00 0.00 0.00 64 1014.3
20260905155502 85 212 0.0 2.0 0.00 0.00 0.00 66 1014.5
20260905153503 85 43 0.0 1.0 0.00 0.00 0.00 67 1014.5
20260905153003 85 43 0.0 1.0 0.00 0.00 0.00 66 1014.5
20260905152503 85 43 0.0 1.0 0.00 0.00 0.00 64 1014.5
20260905152002 85 43 1.0 3.0 0.00 0.00 0.00 64 1014.4
20260905151505 85 42 1.0 3.0 0.00 0.00 0.00 62 1014.6
20260905151002 85 309 1.0 3.0 0.00 0.00 0.00 64 1014.6
20260905150502 84 98 1.0 3.0 0.00 0.00 0.00 64 1014.6
20260905150003 84 68 0.0 3.0 0.00 0.00 0.00 65 1014.5
20260905145503 83 348 0.0 3.0 0.00 0.00 0.00 68 1014.5
20260905145002 83 56 0.0 3.0 0.00 0.00 0.00 64 1014.5
20260905144503 83 48 0.0 3.0 0.00 0.00 0.00 66 1014.5
20260905144003 82 137 0.0 3.0 0.00 0.00 0.00 66 1014.6
20260905143502 81 198 0.0 3.0 0.00 0.00 0.00 68 1014.8
20260905143003 81 254 1.0 3.0 0.00 0.00 0.00 70 1015.0
20260905142502 80 5 0.0 3.0 0.00 0.00 0.00 69 1014.9
20260905142003 80 49 0.0 3.0 0.00 0.00 0.00 70 1014.9
20260905140502 78 122 0.0 2.0 0.00 0.00 0.00 76 1015.1
20260905140000 78 122 0.0 2.0 0.00 0.00 0.00 75 1015.1
20260905135502 78 139 0.0 2.0 0.00 0.00 0.00 77 1015.2
20260905135001 78 108 0.0 2.0 0.00 0.00 0.00 78 1015.3
20260905134000 77 116 0.0 2.0 0.00 0.00 0.00 77 1015.1
20260905133001 76 75 0.0 2.0 0.00 0.00 0.00 79 1015.3
20260905132502 76 124 0.0 2.0 0.00 0.00 0.00 80 1015.4
20260905131002 76 98 0.0 3.0 0.00 0.00 0.00 78 1015.6
20260905130501 75 108 0.0 2.0 0.00 0.00 0.00 79 1015.6
20260905130002 75 96 0.0 1.0 0.00 0.00 0.00 79 1015.4
20260905125504 75 84 0.0 2.0 0.00 0.00 0.00 80 1015.2
20260905125002 75 120 0.0 2.0 0.00 0.00 0.00 80 1015.2
20260905124503 75 77 0.0 1.0 0.00 0.00 0.00 82 1015.4
20260905123005 0 0.0 0.0 0.00 0.00 0.00 1015.3
20260905122502 0 0.0 0.0 0.00 0.00 0.00 1015.4
20260905122003 0 0.0 0.0 0.00 0.00 0.00 1015.4
20260905121007 0 0.0 0.0 0.00 0.00 0.00 1015.4
20260905120502 0 0.0 0.0 0.00 0.00 0.00 1015.3
20260905120005 0 0.0 0.0 0.00 0.00 0.00 1015.4
20260905115503 0 0.0 0.0 0.00 0.00 0.00 1015.4
20260905115002 0 0.0 0.0 0.00 0.00 0.00 1015.3
20260905114003 0 0.0 0.0 0.00 0.00 0.00 1015.2
20260905113503 0 0.0 0.0 0.00 0.00 0.00 1015.1
20260905112502 0 0.0 0.0 0.00 0.00 0.00 1014.5
20260905112002 0 0.0 0.0 0.00 0.00 0.00 1014.4
20260905111503 0 0.0 0.0 0.00 0.00 0.00 1013.7
20260905111002 0 0.0 0.0 0.00 0.00 0.00 1013.5
20260905105501 0 0.0 0.0 0.00 0.00 0.00 1013.1
20260905105004 0 0.0 0.0 0.00 0.00 0.00 1013.0
20260905104502 0 0.0 0.0 0.00 0.00 0.00 1013.0
20260905104004 0 0.0 0.0 0.00 0.00 0.00 1013.0
20260905103500 0 0.0 0.0 0.00 0.00 0.00 1013.0
20260905103002 0 0.0 0.0 0.00 0.00 0.00 1013.1
20260905102502 0 0.0 0.0 0.00 0.00 0.00 1013.1
20260905102001 0 0.0 0.0 0.00 0.00 0.00 1013.1
20260905101503 0 0.0 0.0 0.00 0.00 0.00 1013.2
20260905101001 0 0.0 0.0 0.00 0.00 0.00 1013.2
20260905100500 0 0.0 0.0 0.00 0.00 0.00 1013.1
20260905095002 0 0.0 0.0 0.00 0.00 0.00 1012.9
20260905094003 0 0.0 0.0 0.00 0.00 0.00 1012.9
20260905093502 0 0.0 0.0 0.00 0.00 0.00 1013.0
20260905093003 0 0.0 0.0 0.00 0.00 0.00 1012.9
20260905092503 0 225 0.0 0.0 0.00 0.00 0.00 95 1012.9
20260905092004 0 225 0.0 0.0 0.00 0.00 0.00 95 1012.8
20260905091503 76 222 0.0 0.0 0.00 0.00 0.00 95 1012.9
20260905091002 76 222 0.0 0.0 0.00 0.00 0.00 95 1012.9
20260905090504 76 222 0.0 0.0 0.00 0.00 0.00 95 1012.8
20260905090002 76 222 0.0 0.0 0.00 0.00 0.00 95 1012.7
20260905085502 76 222 0.0 0.0 0.00 0.00 0.00 94 1012.8
20260905085003 76 222 0.0 0.0 0.00 0.00 0.00 94 1012.7
20260905084503 76 222 0.0 0.0 0.00 0.00 0.00 94 1012.6
20260905083504 76 222 0.0 1.0 0.00 0.00 0.00 94 1012.6
20260905083003 76 222 0.0 1.0 0.00 0.00 0.00 94 1012.6
20260905082002 77 222 0.0 0.0 0.00 0.00 0.00 94 1012.6
20260905081502 77 222 0.0 1.0 0.00 0.00 0.00 94 1012.5
20260905080502 77 222 0.0 0.0 0.00 0.00 0.00 94 1012.4
20260905080005 77 222 0.0 1.0 0.00 0.00 0.00 94 1012.3
20260905075505 77 222 0.0 1.0 0.00 0.00 0.00 94 1012.4
20260905075002 77 222 0.0 1.0 0.00 0.00 0.00 94 1012.2
20260905074502 77 222 0.0 1.0 0.00 0.00 0.00 94 1012.3
20260905074003 77 222 0.0 1.0 0.00 0.00 0.00 94 1012.2